Showing default

COSMOS 1842, 17911

Orbit data source: Space-Track

COSMOS 1842, 17911 is a payload satellite owned by GRU (CIS) in LEO that was launched on Mon, 27 Apr 1987 UTC via a TSIKLON-3 launch vehicle from the Plesetsk Missile And Space Complex (PKMTR). Payload-class satellites include a variety of spacecraft equipped with specific instruments for various scientific and technological missions. These include communications satellites like Starlink; space stations such as the ISS; scientific satellites like the Hubble; Earth observation satellites from companies like Planet Labs, Umbra, and HawkEye 360; GPS; miniature CubeSats for education and research; and military/defense satellites.

Loading next visibility...
Identifier
17911, 1987-038A
Orbit
LEO
Country
Flag of CISCIS
Related business
Manufacturer
Yuzhnoe
Mission
Defense Sigint
Bus & Motor
TSELINA-D, Unknown motor
Mass
1,750 kg wet, 1,750 kg dry
Launch date (UTC)
1987-04-27 (39 years ago)
Launch vehicle
TSIKLON-3
Launch site
Plesetsk Missile And Space Complex (PKMTR)
Object type
Payload
Rocket body
Debris
Shape & HBR
Cone + 2 Pan, 6.5 m
Radar Cross Section
2.839 m², Large (>1 m²)

Expand to show TLE details & history
Last TLE update: 2 days ago

TLE from 2 days ago
0 COSMOS 1842
1 17911U 87038A   26171.38913377  .00027351  00000-0  36952-3 0  9999
2 17911  82.5034 171.5139 0001518 249.5785 110.5307 15.57605520141273
Epoch: 2026-06-20T09:20Z
TLE epoch observation values (Epoch: 2026-06-20T09:20:21.157Z)
Latitude
-0.00006°
Longitude
122.82128°
Altitude
398.089 km
Speed
7.671 km/s
True Right ascension
11h 26m 03s
True Declination
0° 00' 00"
Sunlit
Object was in daylight at epoch
Visualization orbit readout
Latitude
Unknown
Longitude
Unknown
Altitude
Unknown
Speed
Unknown
Apparent Right ascension
Unknown
Apparent Declination
Unknown
Sunlit
N/A
Visualization observer readout
Local Sidereal Time
23:09:04
Azimuth
Unknown
Elevation
Unknown
Doppler factor
Unknown
Orbital elements
Apogee altitude
392.537 km
Perigee altitude
390.481 km
Semi-major axis
6,769.646 km
Eccentricity
0.00015
Inclination
82.5034°
RAAN
171.5139°
Arg. of periapsis
249.5785°
True anomaly
110.54699°
Mean anomaly
110.5307°
Eccentric anomaly
110.53884°
Mean motion
3.89668 °/min
Orbital period
92.39 mins
BSTAR
0.00036952
Loading maneuver chart data...
Computing Atmospheric mass density...
Loading historical data...
Loading historical data...
Loading historical data...
Loading historical data...
Loading historical data...
Loading historical data...
Loading historical data...
Other satellites on launch #38 in the year 1987 (1987-04-27 UTC)

Documentation

Showing up to 5 results
|